[[{"header":{"parameterUnit":"m.s-1","parameterCategory":1,"la1":30.2991,"la2":30.254,"lo1":-89.0895,"lo2":-89.0444,"dy":0.0017,"dx":0.0017,"nx":28,"ny":28,"refTime":"2024-07-03T09:00:00:Z","depth":0,"parameterNumber":2,"parameterNumberName":"U-component_of_WINDS"},"data":[0,0,0,0,0,0,0,0,0,0,0,0,0,0,0,0,0,0,0,0,0,0,0,0,0,0,0,0,0,0,0,0,0,0,0,0,0,0,0,0,0,0,0,0,0,0,0,0,0,0,0,0,0,0,0,0,0,0,2.6784,2.6784,0,2.6834,2.6835,2.6835,2.6735,2.6732,2.6729,2.6726,2.678,2.6784,2.6789,0,0,0,0,0,0,0,0,0,0,0,0,0,2.6602,2.6606,2.6784,2.6784,2.6785,2.6834,2.6835,2.6836,2.6736,2.6732,2.6728,2.6724,2.6778,2.6784,2.6789,0,0,0,0,0,0,0,0,0,0,0,0,0,2.667,2.6607,2.6784,2.6741,2.6738,2.6834,2.6835,2.6836,2.6737,2.6732,2.6727,2.6722,2.6777,2.6783,2.679,2.6931,0,0,2.6811,2.6814,0,0,0,0,0,0,0,0,2.6666,2.6676,2.6747,2.6744,2.6741,2.6773,2.679,2.6868,2.6738,2.6737,2.6726,2.672,2.6782,2.6788,2.6808,2.6933,2.6935,2.6811,2.6815,2.6818,2.682,0,0,0,0,0,0,0,2.6661,2.6674,2.6804,2.6748,2.6744,2.672,2.6724,2.6805,2.6787,2.6737,2.673,2.6737,2.6779,2.6802,2.6809,2.6936,2.6811,2.6817,2.6821,2.6824,2.7177,2.7182,0,0,0,0,0,0,2.6662,2.667,2.6802,2.6805,2.669,2.6727,2.6732,2.6768,2.6786,2.6783,2.6741,2.6732,2.6793,2.6801,2.681,2.6975,2.6818,2.6824,2.6828,2.7172,2.7178,2.7184,0,0,0,0,0,0,2.6658,2.6674,2.68,2.6736,2.675,2.6735,2.6777,2.6772,2.6794,2.6789,2.6785,2.6768,2.6789,2.6801,2.6901,2.6975,2.6828,2.6834,2.7165,2.7173,2.7181,2.7306,0,0,0,0,0,0,2.6653,2.6674,2.6727,2.6738,2.6754,2.689,2.6782,2.6776,2.6806,2.6794,2.6813,2.6811,2.6786,2.6891,2.6908,2.6982,2.6839,2.7158,2.7169,2.7178,2.7295,2.7317,2.7336,0,0,0,0,0,2.6647,2.6761,2.673,2.6747,2.682,2.6894,2.6903,2.6872,2.6812,2.6865,2.6862,2.681,2.6965,2.6902,2.692,2.6997,2.7154,2.7166,2.7178,2.7285,2.7312,2.7335,0,0,0,0,0,0,2.676,2.6762,2.6727,2.6848,2.6872,2.6877,2.6943,2.6902,2.6944,2.6932,2.6892,2.6897,2.7004,2.7011,2.6941,2.7133,2.7049,2.7065,2.7125,2.7151,2.7171,2.7167,2.6845,0,0,0,0,0,2.6799,2.6859,2.6857,2.6964,2.6977,2.6959,2.699,2.6963,2.6987,2.6996,2.7,2.7025,2.7078,2.7115,2.7164,2.7295,2.7297,2.7357,2.7378,2.7394,2.7409,2.7477,2.7503,2.7223,2.7223,2.7223,0,0,2.688,2.6888,2.6929,2.6986,2.7002,2.7064,2.6968,2.7039,2.7085,2.7007,2.7101,2.7105,2.713,2.7246,2.7297,2.7254,2.7486,2.741,2.7423,2.7428,2.7492,2.7518,2.7542,2.7231,2.723,2.7228,0,0,2.7059,2.7072,2.7161,2.7178,2.7202,2.7189,2.721,2.7222,2.7221,2.7315,2.7257,2.7312,2.7406,2.7425,2.7448,2.7633,2.7587,2.7651,2.7758,2.7825,2.7847,2.7866,2.7931,2.7955,2.7665,2.7665,2.7666,0,2.7157,2.7249,2.7213,2.7287,2.7314,2.7246,2.7335,2.7354,2.7393,2.7413,2.7365,2.748,2.7493,2.7611,2.7656,2.7677,2.77,2.7648,2.7846,2.7865,2.7883,2.7944,2.7969,2.7673,2.7672,2.7671,2.7671,0,2.7368,2.7432,2.7502,2.754,2.7574,2.7657,2.7632,2.7672,2.7643,2.7634,2.773,2.7742,2.7792,2.7818,2.7791,2.7932,2.7905,2.7853,2.7767,2.7917,2.7974,2.7998,2.7684,2.7681,2.7679,2.7677,0,0,2.762,2.7636,2.7662,2.7678,2.7699,2.7748,2.7827,2.7874,2.7908,2.7938,2.8002,2.8082,2.8033,2.8059,2.8033,2.8092,2.8236,2.8031,2.8031,2.8068,2.8391,2.843,2.8458,2.8206,2.821,2.8214,2.8389,0,2.7797,2.7931,2.79,2.8033,2.8091,2.8027,2.8095,2.8115,2.811,2.8159,2.8153,2.821,2.8141,2.8156,2.8211,2.8207,2.83,2.8194,2.8265,2.8268,2.826,2.8488,2.853,2.8695,2.8411,2.8415,2.8418,0,2.8021,2.8057,2.8196,2.8205,2.8229,2.8291,2.8331,2.8379,2.84,2.8392,2.842,2.8382,2.846,2.8374,2.8479,2.8407,2.8435,2.8437,2.8443,2.8447,2.8351,2.8498,2.8747,2.8771,2.8453,2.845,2.8447,0,2.8189,2.8273,2.8366,2.8382,2.8396,2.8441,2.8449,2.8465,2.8496,2.8531,2.855,2.8595,2.8619,2.8655,2.863,2.857,2.874,2.8652,2.8734,2.8735,2.8772,2.877,2.9028,2.8792,2.8792,2.8791,2.8791,0,2.8389,2.8476,2.8442,2.8499,2.8594,2.8558,2.8653,2.8654,2.8669,2.8725,2.8672,2.8726,2.869,2.8741,2.8722,2.8812,2.8824,2.8819,2.8813,2.8823,2.8824,2.884,2.8827,2.8798,2.8796,2.8795,2.8794,0,2.8593,2.8574,2.8671,2.8676,2.8679,2.8749,2.8753,2.8806,2.8796,2.8868,2.8883,2.8867,2.8924,2.8903,2.8964,2.8951,2.9065,2.9045,2.9058,2.9052,2.9136,2.9128,2.9412,2.9447,2.919,2.9192,2.9194,0,2.8722,2.8787,2.8799,2.8832,2.8843,2.8898,2.8928,2.8895,2.8928,2.8957,2.9006,2.9058,2.9098,2.9192,2.9187,2.9233,2.9212,2.9309,2.9219,2.9227,2.9212,2.9208,2.9214,2.9326,2.9329,2.9332,2.9334,0,2.8951,2.8938,2.8983,2.9025,2.9062,2.9094,2.9121,2.9151,2.9119,2.9159,2.9216,2.9247,2.9309,2.9361,2.9402,2.941,2.9367,2.9362,2.9383,2.9394,2.9399,2.9396,2.9106,2.9356,2.9353,2.9352,2.9351,2.935,2.912,2.9175,2.9191,2.9243,2.9259,2.9285,2.9335,2.9331,2.9377,2.9424,2.9402,2.9468,2.9486,2.9536,2.9551,2.9601,2.9564,2.9595,2.9603,2.9611,2.9621,2.9391,2.9609,2.9608,2.9608,2.9607,2.9607,0,2.9346,2.9353,2.9401,2.944,2.948,2.9435,2.9462,2.9499,2.9558,2.9578,2.9618,2.9683,2.9733,2.9731,2.9777,2.9819,2.98,2.9832,2.9828,2.983,2.9653,2.9629,2.9846,2.9846,2.9846,2.9846,2.9846,2.9846,2.9468,2.9557,2.9546,2.9642,2.9648,2.9712,2.9731,2.9755,2.977,2.9845,2.9886,2.9884,2.9896,2.9942,2.9986,2.9984,3.0003,3.0042,3.0033,2.9867,2.9843,2.982,2.9798,3.0047,3.0047,3.0205,3.0207,3.0208]},{"header":{"parameterUnit":"m.s-1","parameterCategory":1,"la1":30.2991,"la2":30.254,"lo1":-89.0895,"lo2":-89.0444,"dy":0.0017,"dx":0.0017,"nx":28,"ny":28,"refTime":"2024-07-03T09:00:00:Z","depth":0,"parameterNumber":3,"parameterNumberName":"V-component_of_WINDS"},"data":[0,0,0,0,0,0,0,0,0,0,0,0,0,0,0,0,0,0,0,0,0,0,0,0,0,0,0,0,0,0,0,0,0,0,0,0,0,0,0,0,0,0,0,0,0,0,0,0,0,0,0,0,0,0,0,0,0,0,4.4497,4.4498,0,4.4603,4.4604,4.4605,4.4575,4.4572,4.457,4.4568,4.467,4.4675,4.468,0,0,0,0,0,0,0,0,0,0,0,0,0,4.426,4.4265,4.4497,4.4498,4.45,4.4603,4.4604,4.4605,4.4575,4.4572,4.457,4.4567,4.4669,4.4674,4.468,0,0,0,0,0,0,0,0,0,0,0,0,0,4.4364,4.4266,4.4497,4.4497,4.4498,4.4602,4.4604,4.4606,4.4576,4.4572,4.4569,4.4566,4.4667,4.4674,4.4681,4.4789,0,0,4.4703,4.4706,0,0,0,0,0,0,0,0,4.4358,4.4373,4.4496,4.4497,4.4499,4.4572,4.4558,4.4667,4.4576,4.4546,4.4568,4.4564,4.464,4.4649,4.4676,4.4794,4.4799,4.4703,4.4707,4.4711,4.4713,0,0,0,0,0,0,0,4.4351,4.4368,4.4539,4.4497,4.4499,4.4489,4.45,4.4579,4.461,4.4548,4.4546,4.456,4.464,4.4669,4.4678,4.48,4.4703,4.4709,4.4714,4.4716,4.5008,4.5012,0,0,0,0,0,0,4.4344,4.4362,4.4535,4.4542,4.4419,4.4496,4.4508,4.4552,4.4609,4.4614,4.4562,4.4558,4.4659,4.467,4.4681,4.481,4.471,4.4717,4.4721,4.5005,4.5009,4.5013,0,0,0,0,0,0,4.4339,4.436,4.4531,4.4452,4.4473,4.4504,4.4552,4.4556,4.4585,4.4619,4.4624,4.4587,4.4656,4.4671,4.4762,4.4813,4.472,4.4727,4.5001,4.5006,4.5011,4.5069,0,0,0,0,0,0,4.4332,4.4358,4.4402,4.4453,4.4477,4.4613,4.4556,4.456,4.4598,4.4593,4.4644,4.4649,4.4655,4.4752,4.4769,4.4821,4.4732,4.4996,4.5003,4.5009,4.5063,4.5076,4.5087,0,0,0,0,0,4.4324,4.4414,4.4404,4.4425,4.4533,4.4616,4.4629,4.4637,4.4602,4.4645,4.4666,4.4647,4.4805,4.4762,4.4781,4.4836,4.4993,4.5001,4.5009,4.5057,4.5073,4.5087,0,0,0,0,0,0,4.4366,4.442,4.4411,4.452,4.4564,4.4611,4.4665,4.4654,4.4707,4.47,4.4704,4.4716,4.4808,4.4831,4.4782,4.4941,4.4893,4.4906,4.4924,4.4939,4.4951,4.4943,4.4738,0,0,0,0,0,4.4389,4.4454,4.4497,4.4589,4.4611,4.4634,4.4671,4.4673,4.4717,4.4735,4.4764,4.4806,4.4864,4.4903,4.4959,4.5066,4.5074,4.5113,4.5125,4.5134,4.5144,4.5199,4.5216,4.5039,4.5039,4.5039,0,0,4.4435,4.4472,4.4513,4.4598,4.4632,4.4697,4.465,4.4721,4.4768,4.4745,4.4833,4.4855,4.4902,4.5,4.5045,4.5022,4.5195,4.5144,4.5152,4.5157,4.5209,4.5225,4.524,4.5044,4.5043,4.5042,0,0,4.4552,4.4588,4.4668,4.4703,4.4755,4.477,4.4788,4.4837,4.4851,4.4939,4.4922,4.4977,4.5079,4.5112,4.5142,4.5269,4.5252,4.5287,4.5349,4.5402,4.5416,4.5428,4.5471,4.5487,4.5297,4.5297,4.5297,0,4.4602,4.4702,4.4709,4.4782,4.4818,4.4801,4.4879,4.4912,4.4979,4.5003,4.4977,4.5102,4.5133,4.5238,4.5268,4.5294,4.5313,4.5281,4.5414,4.5426,4.5438,4.5479,4.5495,4.5301,4.53,4.53,4.5299,0,4.476,4.4828,4.4886,4.4952,4.4995,4.507,4.5086,4.5127,4.5124,4.514,4.5228,4.5264,4.5326,4.5351,4.5349,4.5454,4.5438,4.5413,4.5364,4.5458,4.5496,4.5512,4.5306,4.5305,4.5304,4.5303,0,0,4.4908,4.4976,4.4997,4.5026,4.5081,4.5133,4.5205,4.5267,4.5301,4.5347,4.5406,4.5491,4.5468,4.5502,4.5503,4.555,4.5644,4.5518,4.5519,4.5539,4.5759,4.5777,4.5795,4.5634,4.5637,4.5639,4.5755,0,4.5028,4.5158,4.5166,4.5282,4.5344,4.5327,4.5389,4.5428,4.5444,4.5496,4.5513,4.5573,4.5538,4.5558,4.5604,4.5623,4.5688,4.5615,4.5685,4.5688,4.5673,4.5816,4.5835,4.5943,4.577,4.5772,4.5774,0,4.5187,4.5239,4.5362,4.5406,4.5432,4.5488,4.5543,4.5595,4.5637,4.5645,4.5682,4.5675,4.5746,4.5695,4.5791,4.5741,4.5769,4.5783,4.5787,4.5793,4.5736,4.5823,4.5977,4.5993,4.5798,4.5796,4.5795,0,4.528,4.538,4.5466,4.5491,4.5545,4.5585,4.5609,4.5648,4.5683,4.5731,4.5753,4.5808,4.5837,4.5878,4.5885,4.5848,4.598,4.593,4.5986,4.5985,4.6014,4.6012,4.6173,4.6035,4.6035,4.6034,4.6034,0,4.5413,4.5488,4.5508,4.5561,4.5644,4.565,4.573,4.5751,4.5785,4.5839,4.5827,4.5877,4.5884,4.5935,4.5941,4.6017,4.6031,4.6037,4.6037,4.6037,4.6036,4.6056,4.6048,4.6038,4.6038,4.6037,4.6036,0,4.5531,4.5548,4.564,4.5683,4.5695,4.5754,4.579,4.5838,4.5852,4.592,4.5936,4.5958,4.6017,4.6028,4.6098,4.6101,4.6191,4.6185,4.6178,4.6176,4.623,4.6224,4.6408,4.6432,4.628,4.6281,4.6283,0,4.5615,4.5672,4.5721,4.5757,4.5783,4.5842,4.5878,4.5884,4.5922,4.5973,4.6014,4.6073,4.6119,4.6214,4.6234,4.6286,4.628,4.634,4.6287,4.6285,4.6278,4.6274,4.6278,4.635,4.6352,4.6353,4.6354,0,4.576,4.5765,4.5819,4.5875,4.5919,4.5963,4.6004,4.6034,4.6045,4.6087,4.6149,4.6185,4.6255,4.6312,4.6364,4.6385,4.6371,4.6371,4.6386,4.6386,4.6379,4.6381,4.6204,4.6367,4.6365,4.6364,4.6364,4.6363,4.5862,4.5911,4.5953,4.6012,4.6044,4.6083,4.613,4.615,4.6201,4.626,4.626,4.6326,4.6363,4.6431,4.6455,4.6505,4.6485,4.6508,4.6513,4.6518,4.6522,4.6372,4.6514,4.6514,4.6514,4.6513,4.6513,0,4.6005,4.6031,4.6085,4.6144,4.6189,4.6174,4.6218,4.6256,4.6315,4.6352,4.6398,4.6466,4.652,4.6544,4.6596,4.6631,4.6626,4.6644,4.6641,4.6646,4.6538,4.6519,4.6648,4.6648,4.6648,4.6648,4.6648,4.6648,4.6085,4.6166,4.6176,4.6271,4.6296,4.6362,4.6388,4.6422,4.6451,4.6528,4.6573,4.6589,4.6619,4.6673,4.6721,4.6726,4.6745,4.6766,4.6768,4.6667,4.6654,4.6641,4.6622,4.6771,4.6771,4.6871,4.6872,4.6873]}]]